Flag for Australia Weather past 2 weeks in Lord Howe Island, Lord Howe Island, Australia

Now
66 °F

Passing clouds.


Feels Like: 66 °F
Forecast: 67 / 70 °F
Wind: 12 mph from Northeast

Location: Lord Howe Island

Current Time: May 29, 2015 at 1:38:57 AM

Latest Report: May 29, 2015 at 12:00 AM


Visibility: N/A

Pressure: 30.28 "Hg

Humidity: 64%

Dew point: 54 °F

Location of Lord Howe IslandLocation

Historic Weather in Lord Howe Island — Graph

°F

Lord Howe Island temperature yesterday

Maximum temperature yesterday: 69 °F (at 12:00 PM)
Minimum temperature yesterday: 54 °F (at 4:30 AM)
Average temperature yesterday: 63 °F

Past Weeks' High & Low Weather Summary

 TemperatureHumidityPressure
High74 °F (May 21, 1:30 PM)94% (May 21, 7:30 PM)30.48 "Hg (May 21, 7:30 PM)
Low54 °F (May 28, 4:30 AM)46% (May 16, 3:00 PM)29.72 "Hg (May 22, 4:30 PM)
Average66 °F68%30.20 "Hg
* Reported Midnight between May 13 and May 14 — Midnight between May 28 and May 29, Lord Howe Island, Weather by CustomWeather, © 2015

Note: Actual official high and low records may vary slightly from our data, if they occured in-between our weather recording intervals... More about our weather records

Advertising

Lord Howe Island weather history for previous 24 hours

 ConditionsComfort  
Time TempWeatherWind HumidityBarometerVisibility
12:00 AM
Fri, May 29
66 °FPassing clouds.12 mph64%30.28 "HgN/A
10:30 PM
Thu, May 28
66 °FMild.12 mph66%30.28 "HgN/A
9:00 PM67 °FPassing clouds.13 mph65%30.29 "HgN/A
7:30 PM66 °FMild.9 mph65%30.29 "HgN/A
6:00 PM65 °FMild.9 mph68%30.27 "HgN/A
4:30 PM66 °FMild.9 mph63%30.25 "HgN/A
3:00 PM67 °FOvercast.10 mph64%30.24 "Hg16 mi
1:30 PM67 °FMild.10 mph64%30.25 "HgN/A
12:00 PM69 °FOvercast.9 mph62%30.26 "Hg19 mi
10:30 AM68 °FMild.10 mph61%30.29 "HgN/A
9:00 AM68 °FScattered clouds.8 mph61%30.30 "Hg19 mi
7:30 AM65 °FMild.8 mph68%30.27 "HgN/A
5:30 AM55 °FPassing clouds.No wind91%30.25 "Hg16 mi
4:30 AM54 °FCool.No wind93%30.24 "HgN/A
3:00 AM55 °FCool.No wind93%30.23 "HgN/A
1:30 AM57 °FCool.No wind87%30.24 "HgN/A
Weather by CustomWeather, © 2015

See weather overviewHow to use our weather pages